Regional Weather Roundup
Issued by NWS

Home | Current Version | Previous Version | Text Only | Print | Product List | Glossary On
Versions: 1 2 3 4 5 6 7 8 9 10 11 12 13 14 15 16 17 18 19 20 21 22 23 24 25 26 27 28 29 30 31 32 33 34 35 36 37 38 39 40 41 42 43 44 45 46 47 48 49 50
000
ASUS43 KMPX 221110
RWRMN
WEATHER ROUNDUP FOR MINNESOTA
NATIONAL WEATHER SERVICE TWIN CITIES/CHANHASSEN MN
600 AM CDT WED MAR 22 2017


NOTE: "FAIR" INDICATES FEW OR NO CLOUDS BELOW 12,000 FEET WITH NO
SIGNIFICANT WEATHER AND/OR OBSTRUCTIONS TO VISIBILITY. N/A MEANS
CURRENT SKY AND/OR WEATHER CONDITIONS ARE NOT AVAILABLE.

MNZ060>063-068>070-221200-
   Twin Cities Metro

CITY           SKY/WX    TMP DP  RH WIND       PRES   REMARKS
TWIN CITIES    PTCLDY    22   5  48 E8        30.54S WCI  12
ST PAUL        CLOUDY    21   7  54 E7        30.56R WCI  12
CRYSTAL        CLOUDY    19   4  51 CALM      30.53S
BLAINE         PTCLDY    19   9  63 E7        30.53S WCI  10
LAKEVILLE      CLOUDY    16  10  79 E5        30.52S WCI   9
EDEN PRAIRIE   CLOUDY    23   5  46 E8        30.52R WCI  14
SOUTH ST PAUL  CLEAR     22   8  55 CALM      30.55R
LAKE ELMO      FAIR      19  10  68 E3        30.55S
$$
MNZ001>005-007-008-013>017-022>024-027-028-221200-
   Northwest Minnesota

CITY           SKY/WX    TMP DP  RH WIND       PRES   REMARKS
BEMIDJI        CLOUDY    10   2  71 SE5       30.50R WCI   2
HALLOCK        CLEAR     19  12  73 SE12      30.47F WCI   7
ROSEAU         CLOUDY    18   7  62 SE12      30.49F WCI   5
WARROAD        CLOUDY    18   7  62 SE7       30.50F WCI   8
THIEF RVR FALL CLEAR     17   7  64 SE12      30.50S WCI   4
CROOKSTON      CLEAR     18   9  68 SE10      30.49F WCI   6
FOSSTON        CLEAR     12   1  62 SE7       30.49S WCI   2
DETROIT LAKES  CLEAR     18   5  57 SE9       30.48S WCI   6
MOORHEAD       CLOUDY    19   7  58 SE9       30.48F WCI   9
PARK RAPIDS    CLOUDY    15   0  51 SE6       30.48R WCI   6
MAHNOMEN       FAIR      15   3  58 SE6       30.48S WCI   7
$$
MNZ006-009>011-018-025>026-221200-
   North Central Minnesota

CITY           SKY/WX    TMP DP  RH WIND       PRES   REMARKS
BAUDETTE       PTCLDY    13   3  64 SE9       30.50S WCI   1
FLAG ISLAND    CLOUDY    12   3  67 SE5       30.50F WCI   4
INTL FALLS     CLOUDY     8   2  76 SE6       30.53S WCI  -2
WASKISH        CLOUDY     9   1  72 E5        30.51S WCI   0
BIG FORK       CLOUDY     3   0  85 CALM      30.52R
LONGVILLE      CLOUDY     9   7  92 CALM      30.51R
GRAND RAPIDS   CLOUDY    11   1  64 SE3       30.54R
CRANE LAKE     CLOUDY     0  -2  92 CALM      30.58R
ORR            CLOUDY     1  -4  78 CALM      30.51R
COOK           CLOUDY     3   0  85 CALM      30.54R
WALKER         FAIR      10   5  80 CALM      30.50R
$$
MNZ012-019>021-037-221200-
   Northeast Minnesota

CITY           SKY/WX    TMP DP  RH WIND       PRES   REMARKS
DULUTH         CLOUDY    12   0  58 NE3       30.52R
ELY            CLOUDY     1   0  92 CALM      30.53S
HIBBING        CLOUDY     5   2  87 CALM      30.53R
EVELETH        PTCLDY     5   0  80 CALM      30.54S
DULUTH HARBOR  CLOUDY    23  14  68 NE16      30.58S WCI  10
TWO HARBORS    CLEAR     14   1  57 N5        30.53S WCI   6
SILVER BAY     CLOUDY     7   1  78 CALM      30.54F
GRAND MARAIS     N/A     12   0  58 N5        30.61F WCI   4
G MARAIS ARPRT CLEAR      0  -8  71 CALM      30.51R
$$
MNZ029>031-032-039>041-046>048-054>057-064-221200-
   West Central Minnesota

CITY           SKY/WX    TMP DP  RH WIND       PRES   REMARKS
FERGUS FALLS   CLOUDY    19   5  53 SE9       30.52S WCI   9
WHEATON        CLOUDY    18  10  73 SE12      30.48F WCI   5
MORRIS         CLOUDY    16  10  79 E9        30.46F WCI   4
ALEXANDRIA     CLOUDY    16   6  65 SE7       30.48S WCI   6
ELBOW LAKE     FAIR      17   8  67 SE10      30.47F WCI   4
WADENA         CLOUDY    12   5  73 E6        30.49S WCI   3
GLENWOOD       CLOUDY    16   9  73 E8        30.49R WCI   5
APPLETON       CLOUDY    21  12  68 E9        30.47F WCI  11
BENSON         CLOUDY    19   7  58 SE7       30.50S WCI  10
ORTONVILLE     CLOUDY    19  12  73 SE12      30.46S WCI   7
MADISON        CLOUDY    25  18  74 SE8       30.48S WCI  16
WILLMAR        FAIR      19  12  73 E6        30.51S WCI  11
$$
MNZ033>034-036-042>043-049>051-058-059-221200-
   Central Minnesota

CITY           SKY/WX    TMP DP  RH WIND       PRES   REMARKS
ST CLOUD       CLEAR     18   6  59 E6        30.52S WCI  10
SAUK CENTRE    FAIR      16   8  68 E5        30.50S WCI   9
PAYNESVILLE      N/A     19   8  62 SE5       30.52R WCI  12
AITKIN         CLOUDY    10   3  72 CALM      30.51R
PINE RIVER     CLOUDY    14   5  67 CALM      30.53S
BRAINERD       CLOUDY    10   5  80 CALM      30.52R
STAPLES        CLOUDY    12   3  67 CALM      30.50R
LONG PRAIRIE   FAIR      18   7  62 E5        30.50S WCI  11
LITTLE FALLS   CLOUDY    18   5  57 E3        30.53R
LITCHFIELD     CLOUDY    18  10  73 E5        30.52R WCI  11
BUFFALO        CLEAR     19   8  62 E6        30.53F WCI  10
MAPLE LAKE     CLOUDY    21  10  62 E7        30.53S WCI  12
HUTCHINSON     CLEAR     19  11  72 E5        30.53R WCI  12
$$
MNZ037-044-045-052-053-221200-
   East Central Minnesota

CITY           SKY/WX    TMP DP  RH WIND       PRES   REMARKS
PRINCETON      PTCLDY    18   7  62 CALM      30.53S
MORA           PTCLDY    14   5  67 CALM      30.56R
CAMBRIDGE      PTCLDY    19   7  58 NE3       30.52S
RUSH CITY      PTCLDY    16   6  65 E3        30.55S
MOOSE LAKE     CLOUDY    10   5  79 CALM      30.53S
HINCKLEY       FAIR      14   7  73 NE3       30.55S
CLOQUET        CLOUDY    10   1  67 CALM      30.53R
MCGREGOR       CLOUDY    10   7  85 E3        30.53S
$$
MNZ071>073-080-081-089-090-097-098-221200-
   Southwest Minnesota

CITY           SKY/WX    TMP DP  RH WIND       PRES   REMARKS
MONTEVIDEO     CLOUDY    18  12  79 SE9       30.50S WCI   6
GRANITE FALLS  CLOUDY    21  13  71 E8        30.50F WCI  12
CANBY          CLOUDY    23  16  74 CALM      30.47F
MARSHALL       CLOUDY    20  13  74 SE7       30.48S WCI  11
REDWOOD FALLS  PTCLDY    21   9  59 E8        30.49F WCI  11
OLIVIA         CLOUDY    21  10  63 E7        30.50S WCI  13
PIPESTONE      CLOUDY    25  10  54 SE10      30.42S WCI  15
WINDOM         CLOUDY    19  14  79 E7        30.46S WCI  10
WORTHINGTON    CLOUDY    23  15  71 E9        30.45S WCI  13
JACKSON        CLEAR     23  16  74 E8        30.46S WCI  14
TRACY          CLOUDY    21  15  78 SE6       30.47S WCI  13
SLAYTON        CLOUDY    22  14  71 E9        30.45S WCI  12
$$
MNZ065>067-074>077-082>085-091>093-221200-
   South Central Minnesota

CITY           SKY/WX    TMP DP  RH WIND       PRES   REMARKS
MANKATO        CLOUDY    22  11  62 E5        30.52  WCI  16
NEW ULM        PTCLDY    19  10  68 E6        30.51S WCI  11
ST JAMES       CLOUDY    19  16  86 CALM      30.51F
FAIRMONT       CLOUDY    21  16  81 E7        30.49F WCI  12
GLENCOE        PTCLDY    19  13  80 CALM      30.52R
FARIBAULT      CLEAR     21  10  63 CALM      30.52R
OWATONNA       CLEAR     21  12  68 E6        30.50S WCI  14
WASECA         CLOUDY    19  12  73 E5        30.53R WCI  13
ALBERT LEA     CLEAR     19  12  73 E5        30.49S WCI  13
$$
MNZ078>079-086>088-094>096-221200-
   Southeast Minnesota

CITY           SKY/WX    TMP DP  RH WIND       PRES   REMARKS
ROCHESTER      CLEAR     19  11  70 E8        30.50R WCI   9
RED WING       CLEAR     21   7  53 E6        30.54S WCI  14
STANTON        PTCLDY    21  13  71 CALM      30.52S
DODGE CENTER   PTCLDY    19  12  73 E9        30.49S WCI   9
WINONA         PTCLDY    23   9  54 E6        30.56S WCI  16
AUSTIN         CLEAR     21  14  73 CALM      30.50R
PRESTON        CLEAR     20   8  58 E6        30.51R WCI  12
$$
ABBREVIATIONS USED IN REMARKS
   TC - TEMPERATURES IN CELSIUS
  WCI - WIND CHILL INDEX
   HX - HEAT INDEX
  VSB - VISIBILITY
$$




USA.gov is the U.S. government's official web portal to all federal, state and local government web resources and services.